Other Public Products
Issued by NWS Grand Forks, ND

Home | Current Version | Previous Version | Graphics & Text | Print | Product List | Glossary Off
Versions: 1 2 3 4 5 6 7 8 9 10 11 12 13 14 15 16 17 18 19 20 21 22 23 24 25 26 27 28 29 30 31 32 33 34 35 36 37 38 39 40 41 42 43 44 45 46 47 48 49 50

000
FPUS83 KFGF 220831
OPUFGF
PRAIRIE TO PINES WEATHER ROUNDUP
NATIONAL WEATHER SERVICE EASTERN NORTH DAKOTA/GRAND FORKS ND
300 AM CDT SUN APR 22 2018

 **SATELLITE DATA USED TO AUGMENT SKY COVER AT AUTOMATED STATIONS**
 *****  WEATHER ACROSS EASTERN NORTH DAKOTA  *****

CITY           SKY/WX    TMP DP  RH WIND       PRES   REMARKS
GRAND FORKS    FAIR      39  38  96 S12       30.23S
GRND FORKS AFB FAIR      39  37  90 S9        30.22S
GRND FORKS NWS   N/A     40  38  91 S10       30.21R
BUXTON           N/A     40  40  98 S10         N/A
DEVILS LAKE    FAIR      43  32  65 S15       30.17F
FARGO          FAIR      41  35  79 S10       30.27S
WAHPETON ARPT  FAIR      36  32  87 SE3       30.30S
$$

 *****  WEATHER ACROSS CENTRAL AND WESTERN NORTH DAKOTA  *****

CITY           SKY/WX    TMP DP  RH WIND       PRES   REMARKS
JAMESTOWN      FAIR      35  31  85 S8        30.22S
BISMARCK       FAIR      44  35  70 S10       30.17S
MINOT          FAIR      44  36  73 S12G21    30.06R
MINOT AFB      FAIR      43  37  78 S18G25    30.05R
GARRISON         N/A     39  35  86 SW7       30.12R
WILLISTON      FAIR      41  33  73 NW9       30.05S
DICKINSON      FAIR      39  36  89 S15       30.07R
HETTINGER      FAIR      38  34  85 SE12      30.11F
$$

 *****  OTHER OBSERVATIONS NORTHEAST NORTH DAKOTA  *****

CITY           SKY/WX    TMP DP  RH WIND       PRES   REMARKS
WALHALLA       FAIR      46  36  66 SW15G23   30.15S
LANGDON        NOT AVBL
CAVALIER         N/A     43  37  81 S12       30.17S
GRAFTON        NOT AVBL
CANDO          FAIR      37  36  93 S13       30.15F
FORT TOTTEN      N/A     41  33  73 S12       29.95S
ROLLA          FAIR      39  37  93 SW21      30.09F
RUGBY          NOT AVBL
 ***** THE ABOVE OBSERVATIONS ARE NON NWS ARE NOT QUALITY
        CONTROLLED AND MAY MIS-REPORT RAIN FOR SNOW...
$$

 *****  OTHER OBSERVATIONS SOUTHEAST NORTH DAKOTA *****

CITY           SKY/WX    TMP DP  RH WIND       PRES   REMARKS
COOPERSTOWN    FAIR      36  34  93 S9        30.23F
VALLEY CITY    NOT AVBL
OAKES            N/A     32  32 100 S9        30.26S WCI  24
GWINNER          N/A     36  32  87 SW7       30.26F
SHEYENNE NWR     N/A     36  36 100 S5        29.95S
BUFFALO          N/A     40  33  77 E8          N/A
WYNDMERE       NOT AVBL
 ***** THE ABOVE OBSERVATIONS ARE NON NWS ARE NOT QUALITY
       CONTROLLED AND MAY MIS-REPORT RAIN FOR SNOW...
$$

  *****  WEATHER ACROSS NORTHERN MINNESOTA  *****

CITY           SKY/WX    TMP DP  RH WIND       PRES   REMARKS
FLAG ISLAND    FAIR      36  30  80 S8        30.22F
WARROAD        FAIR      43  37  81 S6        30.24S
ROSEAU         FAIR      43  37  81 SW9       30.23S
HALLOCK        FAIR      43  39  87 S14       30.20S
THF RVR FALLS  FAIR      42  36  79 S13       30.26S
HALSTAD        NOT AVBL
FOSSTON        FAIR      34  30  86 S7        30.28S
BAUDETTE       FAIR      38  28  67 S3        30.25S
WASKISH        FAIR      43  28  56 S3        30.28R
CROOKSTON      FAIR      43  37  81 S10       30.26S
$$
  *****  WEATHER ACROSS CENTRAL AND WEST MINNESOTA  *****

CITY           SKY/WX    TMP DP  RH WIND       PRES   REMARKS
BEMIDJI        FAIR      39  30  69 CALM      30.28R
PARK RAPIDS    FAIR      36  29  75 CALM      30.29S
WADENA         FAIR      36  30  80 CALM      30.30S
DETROIT LAKES  FAIR      37  34  87 S3        30.30S
MOORHEAD       FAIR      36  34  93 SE7       30.29S
FERGUS FALLS   FAIR      37  34  87 SE6       30.29S
ELBOW LAKE     FAIR      36  32  85 SE5       30.31R
MORRIS MN      FAIR      36  34  93 SE5       30.29S
STAPLES        FAIR      34  28  80 CALM      30.30S
WHEATON        FAIR      37  30  75 S3        30.31S
$$
  *****  WEATHER ELSEWHERE ACROSS MINNESOTA  *****

CITY           SKY/WX    TMP DP  RH WIND       PRES   REMARKS
DULUTH         FAIR      37  18  46 CALM      30.31F
INTRNTL FALLS  FAIR      38  24  57 CALM      30.27S
ELY            FAIR      27  19  74 CALM      30.31F
CLOQUET        FAIR      28  18  64 CALM      30.32R
BRAINERD       FAIR      29  24  82 CALM      30.31S
HIBBING        FAIR      25  21  85 CALM      30.30F
ALEXANDRIA     FAIR      37  32  82 CALM      30.31F
SAINT CLOUD    FAIR      31  28  89 CALM      30.32F
MINNEAPOLIS    FAIR      39  33  79 CALM      30.33F
$$

  *****  WEATHER ACROSS SOUTH DAKOTA  *****

CITY           SKY/WX    TMP DP  RH WIND       PRES   REMARKS
SIOUX FALLS    CLOUDY    40  33  76 E3        30.27F
BROOKINGS      CLOUDY    36  29  75 CALM      30.28F
WATERTOWN      FAIR      35  28  75 S5        30.26F
HURON          FAIR      36  32  85 SE8       30.25
SISSETON         N/A     35  30  82 SE5       30.27F
ABERDEEN       FAIR      31  29  92 S5        30.27S
MITCHELL       CLOUDY    39  36  89 SE5       30.27F
PIERRE         FAIR      35  33  92 S7        30.21F
MOBRIDGE       FAIR      35  32  88 SE8       30.19S
RAPID CITY     FAIR      37  33  85 SE10      30.11F
$$

  *****  SOME WEATHER IN NEARBY STATES *****

CITY           SKY/WX    TMP DP  RH WIND       PRES   REMARKS
GLASGOW MT     FAIR      45  25  45 W10       30.07R
GREAT FALLS MT FAIR      41  24  51 CALM      30.13S
CHEYENNE WY    CLOUDY    34  34 100 SW8       30.14S FOG
SCOTTSBLUFF NE FAIR      33  33 100 E8        30.16F FOG
OMAHA NE       CLOUDY    50  29  44 E10G21    30.21F
DES MOINES IA  CLOUDY    49  33  54 E9        30.26F
DAVENPORT IA   FAIR      45  27  49 E9        30.31F
CHICAGO IL     CLOUDY    44  20  38 NE9       30.33F
EAU CLAIRE WI  FAIR      34  30  85 CALM      30.34S
LA CROSSE WI   FAIR      37  31  78 CALM      30.34F
$$

  *****  SOME NATIONAL WEATHER *****

CITY           SKY/WX    TMP DP  RH WIND       PRES   REMARKS
LA GUARDIA NY  FAIR      49  22  34 NW8       30.38R
RALEIGH NC     FAIR      48  40  73 SE5       30.36S
ATLANTA GA     CLOUDY    61  53  75 SE10      30.22F
NEW ORLEANS LA CLOUDY    70  68  93 SE10      29.98F
OKLAHOMA CITY  CLOUDY    45  42  89 N21       30.10R
ALBUQUERQUE NM FAIR      49  29  46 SE8       30.17R
SALT LAKE CITY FAIR      52  31  44 SE8       30.14S
LOS ANGELES CA FAIR      60  53  77 NE3       29.97F
BOISE ID       FAIR      49  31  49 W7        30.14R
SEATTLE WA     FAIR      47  36  65 NE14      30.40S
$$

*** WEATHER ACROSS MANITOBA...SASKATCHEWAN AND ONTARIO ***
                ***ONTARIO***

CITY           SKY/WX    TMP DP  RH WIND       PRES   REMARKS
GERALDTON      CLEAR     28  18  64 S2        30.32S
THUNDER BAY    CLEAR     25  23  93 W3        30.36S
SIOUX LOOKOUT  PTCLDY    34  23  64 S6        30.24F
TORONTO        CLEAR     39  23  52 NW7       30.39S
BIG TROUT LK   CLEAR     36  27  69 SW6       30.16F
PICKLE LAKE    NOT AVBL
DRYDEN         CLEAR     41  25  52 S9        30.24S
KENORA         PTCLDY    43  30  61 S7        30.22S
$$
                *** MANITOBA***

CITY           SKY/WX    TMP DP  RH WIND       PRES   REMARKS
BRANDON        MOCLDY    46  37  71 SW17G25   30.04R
DAUPHIN        MOCLDY    50  37  62 SW28G38   29.89R
ISLAND LAKE    MOCLDY    46  32  57 SE7       30.05F
PILOT MOUND      N/A     41  34  75 S22         N/A
THE PAS        LGT RAIN  43  37  81 SE10      29.68F
THOMPSON       LGT RAIN  45  37  76 E7        29.86F
WINNIPEG       MOCLDY    46  39  76 S16G23    30.13F
LYNN LAKE      LGT RAIN  41  32  70 E12       29.73F
CHURCHILL      CLOUDY    25  23  93 NE15G21   30.19F WCI  12
GILLAM         MOCLDY    41  30  65 E10G20    30.04F
$$
                ***SASKATCHEWAN***

CITY           SKY/WX    TMP DP  RH WIND       PRES   REMARKS
ESTEVAN        MOCLDY    48  34  57 NW10      30.00S
KINDERSLEY     PTCLDY    39  34  81 W20G28    29.90S
LLOYDMINSTER   CLOUDY    37  36  93 W18G24    29.79R
PRINCE ALBERT  LGT RAIN  41  36  81 W14G22    29.59S
REGINA         PTCLDY    41  34  75 SW9       29.94R
YORKTON        CLOUDY    45  34  65 SW13G21   29.86R



USA.gov is the U.S. government's official web portal to all federal, state and local government web resources and services.